GW1585 Weather Reports


time (UTC)temp
F
wind
direction
speed
knots
gust
knots
rain 1hr
in
rain 24hr
in
rain mn
in
humidity
%
barometer
mb
20260510114557 54 233 2.6 7.8 0.00 0.00 0.00 77 1017.2
20260510113054 54 266 3.5 8.7 0.00 0.00 0.00 76 1017.3
20260510111555 54 193 3.5 9.6 0.00 0.00 0.00 78 1017.3
20260510110054 54 253 2.6 7.8 0.00 0.00 0.00 78 1017.2
20260510104555 54 11 3.5 7.8 0.00 0.00 0.00 77 1017.3
20260510103056 54 274 1.7 8.7 0.00 0.00 0.00 77 1017.4
20260510101606 54 286 2.6 8.7 0.00 0.00 0.00 75 1017.4
20260510100134 54 337 2.6 9.6 0.00 0.00 0.00 76 1017.4
20260510094559 54 322 2.6 10.4 0.00 0.00 0.00 76 1017.4
20260510093102 54 44 2.6 7.0 0.00 0.00 0.00 77 1017.4
20260510091559 54 354 2.6 7.8 0.00 0.00 0.00 78 1017.5
20260510090111 54 336 2.6 7.8 0.00 0.00 0.00 78 1017.5
20260510084600 54 351 2.6 7.0 0.00 0.00 0.00 79 1017.3
20260510083103 54 280 1.7 7.8 0.00 0.00 0.00 79 1017.6
20260510081557 54 240 2.6 7.8 0.00 0.00 0.00 78 1017.6
20260510080100 55 263 1.7 7.8 0.00 0.00 0.00 79 1017.6
20260510074558 54 127 1.7 4.3 0.00 0.00 0.00 81 1017.7
20260510073057 53 259 0.9 5.2 0.00 0.00 0.00 82 1018.0
20260510071603 53 306 1.7 6.1 0.00 0.00 0.00 82 1017.8
20260510070053 52 300 1.7 5.2 0.00 0.00 0.00 83 1017.9
20260510064558 52 353 1.7 7.8 0.00 0.00 0.00 83 1017.8
20260510063056 52 301 1.7 6.1 0.00 0.00 0.00 84 1017.6
20260510061556 52 312 1.7 5.2 0.00 0.00 0.00 83 1017.7
20260510060057 52 211 1.7 6.1 0.00 0.00 0.00 84 1017.6
20260510054555 51 339 2.6 6.1 0.00 0.00 0.00 85 1017.7
20260510053056 51 331 3.5 7.8 0.00 0.00 0.00 85 1017.8
20260510051555 51 341 2.6 6.1 0.00 0.00 0.00 85 1017.8
20260510050058 51 278 2.6 6.1 0.00 0.00 0.00 86 1017.9
20260510044558 51 350 2.6 6.1 0.00 0.00 0.00 86 1017.7
20260510043058 51 248 2.6 7.0 0.00 0.00 0.00 86 1017.7
20260510041601 51 274 2.6 7.8 0.00 0.00 0.00 87 1017.5
20260510034604 51 345 2.6 7.0 0.00 0.00 0.00 86 1017.4
20260510033113 52 259 2.6 7.8 0.00 0.00 0.00 85 1017.5
20260510031600 52 297 2.6 7.0 0.00 0.00 0.00 84 1017.5
20260510030054 52 238 0.9 5.2 0.00 0.00 0.00 82 1017.5
20260510024557 52 264 0.9 5.2 0.00 0.00 0.00 82 1017.5
20260510023057 52 309 0.9 3.5 0.00 0.00 0.00 83 1017.6
20260510021557 52 266 0.9 6.1 0.00 0.00 0.00 84 1017.5
20260510020057 52 318 0.9 3.5 0.00 0.00 0.00 84 1017.6
20260510014554 52 206 0.9 2.6 0.00 0.00 0.00 85 1017.8
20260510013055 52 257 0.0 2.6 0.00 0.00 0.00 85 1017.9
20260510011557 52 224 0.0 1.7 0.00 0.00 0.00 85 1018.0
20260510010056 52 0 0.0 1.7 0.00 0.00 0.00 85 1018.0
20260510004600 52 306 0.0 0.9 0.00 0.00 0.00 84 1018.0
20260510003116 52 210 0.0 2.6 0.00 0.00 0.00 84 1018.0
20260510001559 52 0 0.0 0.9 0.00 0.00 0.00 84 1018.0
20260509234612 52 274 0.0 1.7 0.00 0.00 0.00 84 1018.4
20260509233057 52 0 0.0 0.9 0.00 0.00 0.00 84 1018.5
20260509231557 52 0 0.0 3.5 0.00 0.00 0.00 84 1018.5
20260509230108 52 199 0.0 1.7 0.00 0.00 0.00 84 1018.5
20260509224553 52 0 0.0 0.0 0.00 0.00 0.00 84 1018.5
20260509223058 52 0 0.0 1.7 0.00 0.00 0.00 84 1018.5
20260509221555 52 0 0.0 0.9 0.00 0.00 0.00 84 1018.5
20260509220057 52 0 0.0 0.9 0.00 0.00 0.00 84 1018.4
20260509214558 52 0 0.0 0.0 0.00 0.00 0.00 84 1018.5
20260509213105 52 266 0.0 1.7 0.00 0.00 0.00 84 1018.6
20260509211603 52 0 0.0 1.7 0.00 0.00 0.00 84 1018.3
20260509204600 52 0 0.0 4.3 0.00 0.00 0.00 84 1018.2
20260509203106 53 306 0.0 4.3 0.00 0.00 0.00 84 1018.2
20260509201559 53 1 0.9 5.2 0.00 0.00 0.00 84 1018.2
20260509194559 53 0 0.0 3.5 0.00 0.00 0.00 83 1018.1
20260509193059 53 211 0.0 2.6 0.00 0.00 0.00 83 1018.0
20260509191557 54 356 0.9 4.3 0.00 0.00 0.00 82 1017.8
20260509190058 54 356 0.0 3.5 0.00 0.00 0.00 81 1017.7
20260509184602 54 231 0.0 2.6 0.00 0.00 0.00 80 1017.9
20260509183136 55 0 0.0 1.7 0.00 0.00 0.00 79 1017.7
20260509181612 55 0 0.0 1.7 0.00 0.00 0.00 78 1017.7
20260509180100 55 309 0.0 3.5 0.00 0.00 0.00 77 1017.5
20260509174556 55 122 0.9 2.6 0.00 0.00 0.00 76 1017.5
20260509173103 56 249 0.9 3.5 0.00 0.00 0.00 75 1017.4
20260509171559 56 319 0.9 3.5 0.00 0.00 0.00 74 1017.4
20260509170057 57 244 0.0 2.6 0.00 0.00 0.00 73 1017.7
20260509164602 58 282 0.0 2.6 0.00 0.00 0.00 72 1017.7
20260509163100 59 309 0.9 3.5 0.00 0.00 0.00 71 1017.7
20260509161554 61 356 0.0 2.6 0.00 0.00 0.00 68 1018.0
20260509160058 65 0 0.0 0.9 0.00 0.00 0.00 64 1018.1
20260509154557 65 0 0.0 0.0 0.00 0.00 0.00 65 1018.1
20260509153058 65 0 0.0 0.9 0.00 0.00 0.00 67 1018.3
20260509151556 64 0 0.0 0.9 0.00 0.00 0.00 68 1018.3
20260509150054 64 0 0.0 2.6 0.00 0.00 0.00 68 1018.2
20260509144554 65 216 0.0 1.7 0.00 0.00 0.00 67 1018.1
20260509143058 65 0 0.0 1.7 0.00 0.00 0.00 69 1018.2
20260509141607 64 0 0.0 0.9 0.00 0.00 0.00 68 1018.1
20260509140059 64 0 0.0 3.5 0.00 0.00 0.00 68 1018.2
20260509134600 62 248 0.0 2.6 0.00 0.00 0.00 73 1018.2
20260509133110 62 3 0.9 2.6 0.00 0.00 0.00 71 1018.5
20260509131555 62 30 0.9 2.6 0.00 0.00 0.00 72 1018.6
20260509130055 62 342 0.0 5.2 0.00 0.00 0.00 72 1018.6
20260509124556 62 285 0.9 1.7 0.00 0.00 0.00 72 1018.7
20260509123059 63 0 0.0 2.6 0.00 0.00 0.00 70 1018.8
20260509121555 64 31 0.9 2.6 0.00 0.00 0.00 68 1018.7
20260509120056 65 106 0.0 0.9 0.00 0.00 0.00 70 1018.9